Flag for France Weather past 2 weeks in Toulouse, France

Now
64 °F

Partly sunny.


Feels Like: 64 °F
Forecast: 49 / 57 °F
Wind: 16 mph from Southeast

Location: Toulouse / Blagnac

Current Time: Apr 26, 2015 at 10:26:33 AM

Latest Report: Apr 26, 2015 at 10:00 AM


Visibility: N/A

Pressure: 29.71 "Hg

Humidity: 78%

Dew point: 57 °F

Location of ToulouseLocation

Historic Weather in Toulouse — Graph

°F

Toulouse temperature yesterday

Maximum temperature yesterday: 72 °F (at 2:30 PM)
Minimum temperature yesterday: 57 °F (at 7:00 AM)
Average temperature yesterday: 65 °F

Past Weeks' High & Low Weather Summary

 TemperatureHumidityPressure
High82 °F (Apr 14, 4:00 PM)100% (Apr 12, 8:30 AM)30.42 "Hg (Apr 12, 8:30 AM)
Low46 °F (Apr 12, 6:00 AM)15% (Apr 14, 5:30 PM)29.71 "Hg (Apr 26, 8:30 AM)
Average61 °F66%30.10 "Hg
* Reported Apr 11 9:00 AM — Apr 26 9:00 AM, Toulouse, Weather by CustomWeather, © 2015

Note: Actual official high and low records may vary slightly from our data, if they occured in-between our weather recording intervals... More about our weather records

Advertising

Toulouse weather history for previous 24 hours

 ConditionsComfort  
Time TempWeatherWind HumidityBarometerVisibility
9:00 AM
Sun, Apr 26
63 °FPassing clouds.14 mph77%29.71 "HgN/A
8:30 AM61 °FPartly sunny.12 mph83%29.71 "HgN/A
8:00 AM59 °FPartly sunny.12 mph88%29.74 "HgN/A
7:30 AM59 °FOvercast.12 mph88%29.74 "HgN/A
7:00 AM59 °FPassing clouds.13 mph88%29.74 "HgN/A
6:30 AM59 °FPassing clouds.12 mph88%29.74 "HgN/A
6:00 AM59 °FPassing clouds.10 mph88%29.77 "HgN/A
5:00 AM59 °FPassing clouds.13 mph88%29.77 "HgN/A
4:30 AM59 °FPassing clouds.9 mph88%29.80 "HgN/A
4:00 AM59 °FPassing clouds.13 mph88%29.80 "HgN/A
3:30 AM59 °FPassing clouds.14 mph94%29.80 "HgN/A
3:00 AM59 °FPassing clouds.14 mph88%29.83 "HgN/A
2:30 AM59 °FClear.10 mph88%29.83 "HgN/A
2:00 AM59 °FClear.12 mph94%29.83 "HgN/A
1:30 AM59 °FClear.10 mph94%29.86 "HgN/A
1:00 AM61 °FClear.12 mph83%29.86 "HgN/A
12:30 AM61 °FClear.12 mph83%29.86 "HgN/A
12:00 AM61 °FClear.12 mph83%29.86 "HgN/A
11:00 PM
Sat, Apr 25
63 °FClear.12 mph77%29.89 "HgN/A
10:30 PM63 °FClear.12 mph83%29.86 "HgN/A
10:00 PM63 °FClear.10 mph83%29.86 "HgN/A
9:30 PM64 °FClear.10 mph78%29.86 "HgN/A
9:00 PM66 °FMostly cloudy.9 mph73%29.86 "HgN/A
8:30 PM68 °FBroken clouds.6 mph64%29.86 "HgN/A
8:00 PM68 °FPartly sunny.6 mph64%29.86 "HgN/A
7:30 PM70 °FBroken clouds.6 mph60%29.83 "HgN/A
7:00 PM72 °FPassing clouds.3 mph50%29.83 "HgN/A
6:30 PM72 °FClear.2 mph50%29.86 "HgN/A
6:00 PM72 °FScattered clouds.3 mph50%29.86 "HgN/A
5:30 PM72 °FPartly sunny.2 mph50%29.86 "HgN/A
5:00 PM72 °FBroken clouds.3 mph50%29.86 "HgN/A
4:30 PM72 °FPartly sunny.2 mph50%29.86 "HgN/A
4:00 PM72 °FBroken clouds.6 mph50%29.86 "HgN/A
3:30 PM72 °FScattered clouds.5 mph50%29.89 "HgN/A
3:00 PM72 °FPartly sunny.3 mph50%29.89 "HgN/A
2:30 PM72 °FBroken clouds.3 mph53%29.89 "HgN/A
2:00 PM70 °FPartly sunny.3 mph60%29.92 "HgN/A
1:30 PM70 °FBroken clouds.2 mph60%29.92 "HgN/A
1:00 PM68 °FBroken clouds.5 mph69%29.92 "HgN/A
12:30 PM68 °FPartly sunny.7 mph69%29.95 "HgN/A
12:00 PM66 °FPartly sunny.8 mph73%29.95 "HgN/A
11:30 AM66 °FBroken clouds.12 mph73%29.95 "HgN/A
11:00 AM64 °FPartly sunny.12 mph83%29.95 "HgN/A
10:30 AM63 °FPartly sunny.12 mph83%29.92 "HgN/A
10:00 AM63 °FOvercast.13 mph83%29.92 "HgN/A
Weather by CustomWeather, © 2015

See weather overviewHow to use our weather pages